This is the latest recevied weather packets stored in our database for station/object K7CTM. If no packets are shown the sender has not sent any weather packets the latest 10 day(s).
| Time | Temp. | Humidity | Pressure | Rain* | Wind** | Luminosity | Snow |
|---|---|---|---|---|---|---|---|
| 1778296924 | 17.22° C | 36% | 1020.6 hPa | 0 mm | - | 0 W/m² | - |
| 1778296622 | 17.22° C | 37% | 1020.5 hPa | 0 mm | - | 0 W/m² | - |
| 1778296319 | 17.22° C | 37% | 1020.5 hPa | 0 mm | - | 0 W/m² | - |
| 1778296018 | 17.78° C | 36% | 1020.4 hPa | 0 mm | - | 0 W/m² | - |
| 1778295714 | 18.33° C | 35% | 1020.2 hPa | 0 mm | - | 0 W/m² | - |
| 1778295410 | 17.78° C | 35% | 1020.2 hPa | 0 mm | - | 0 W/m² | - |
| 1778295107 | 17.78° C | 35% | 1020 hPa | 0 mm | - | 0 W/m² | - |
| 1778294802 | 18.89° C | 34% | 1019.9 hPa | 0 mm | - | 0 W/m² | - |
| 1778294498 | 18.89° C | 32% | 1019.9 hPa | 0 mm | - | 1 W/m² | - |
| 1778294196 | 18.89° C | 33% | 1020 hPa | 0 mm | - | 2 W/m² | - |
| 1778293893 | 18.89° C | 32% | 1019.7 hPa | 0 mm | - | 3 W/m² | - |
| 1778293589 | 18.89° C | 32% | 1019.7 hPa | 0 mm | - | 4 W/m² | - |
| 1778293287 | 18.89° C | 32% | 1019.7 hPa | 0 mm | - | 6 W/m² | - |
| 1778292984 | 19.44° C | 32% | 1019.6 hPa | 0 mm | - | 9 W/m² | - |
| 1778292681 | 19.44° C | 32% | 1019.5 hPa | 0 mm | - | 13 W/m² | - |
| 1778292379 | 19.44° C | 31% | 1019.7 hPa | 0 mm | - | 17 W/m² | - |
| 1778292075 | 20° C | 31% | 1019.6 hPa | 0 mm | - | 22 W/m² | - |
| 1778291775 | 20° C | 30% | 1019.5 hPa | 0 mm | - | 29 W/m² | - |
| 1778291472 | 20° C | 31% | 1019.8 hPa | 0 mm | - | 36 W/m² | - |
| 1778291168 | 20° C | 31% | 1019.6 hPa | 0 mm | - | 41 W/m² | - |
| 1778290865 | 20° C | 32% | 1019.5 hPa | 0 mm | - | 45 W/m² | - |
| 1778290561 | 20° C | 31% | 1019.6 hPa | 0 mm | - | 51 W/m² | - |
| 1778290257 | 20.56° C | 30% | 1019.6 hPa | 0 mm | - | 59 W/m² | - |
| 1778289954 | 20.56° C | 30% | 1019.6 hPa | 0 mm | - | 65 W/m² | - |
| 1778289651 | 20.56° C | 30% | 1019.6 hPa | 0 mm | - | 70 W/m² | - |
* Rain latest hour (hover to see other rain measurements)
** Current wind speed in m/s (hover to see current wind gust speed)